Mastic, NY

7:47 PM EDT on September 24, 2016 (GMT -0400)
Brookhaven

Weather History for KHWV - March, 2013

Change the Weather History Date:

Sunday, March 3, 2013

  Actual Average (KISP) Record (KISP)
Temperature  
Mean Temperature 34 °F 36 °F  
Max Temperature 37 °F 44 °F 66 °F (1991)
Min Temperature 30 °F 28 °F 9 °F (2015)
Degree Days  
Heating Degree Days 32 29  
Month to date heating degree days 88  
Since 1 July heating degree days 3983  
Cooling Degree Days 0 0  
Month to date cooling degree days 0  
Year to date cooling degree days 0  
Moisture  
Dew Point 22 °F    
Average Humidity 63    
Maximum Humidity 70    
Minimum Humidity 48    
Precipitation  
Precipitation 0.00 in 0.14 in 0.98 in (1991)
Month to date precipitation 0.42  
Year to date precipitation 7.32  
Snow  
Snow 0.00 in 0.20 in 3.00 in (1997)
Month to date snowfall 0.6  
Since 1 July snowfall 20.3  
Snow Depth -    
Sea Level Pressure  
Sea Level Pressure 29.69 in    
Wind  
Wind Speed 12 mph (NW)    
Max Wind Speed 16 mph    
Max Gust Speed 22 mph    
Visibility 10 miles    
Events      
T = Trace of Precipitation, MM = Missing Value Source: NWS Daily Summary

Daily Weather History Graph

Daily Weather History Graph

Search for Another Location

Airport or City:

Trip Planner

Search our weather history database for the weather conditions in past years. The results will help you decide how hot, cold, wet, or windy it might be!

Date:

Astronomy

Mar. 03, 2013 Rise Set
Actual Time 6:22 AM EST 5:45 PM EST
Civil Twilight 5:54 AM EST 6:12 PM EST
Nautical Twilight 5:22 AM EST 6:44 PM EST
Astronomical Twilight 4:51 AM EST 7:16 PM EST
Moon No Moon Rise 9:32 AM EST (3/3)
Length of Visible Light 12h 18m
Length of Day
11h 23m
Waning Gibbous, 64% of the Moon is Illuminated
Mar 3
Waning Gibbous
Mar 4
Last Quarter
Mar 11
New
Mar 19
First Quarter
Mar 27
Full

Hourly Weather History & Observations

Time (EST) Temp. Windchill Dew Point Humidity Pressure Visibility Wind Dir Wind Speed Gust Speed Precip Events Conditions
12:56 AM 33.1 °F 24.4 °F 24.1 °F 70% 29.71 in 10.0 mi NW 11.5 mph - N/A   Overcast
1:56 AM 32.0 °F 22.5 °F 23.0 °F 69% 29.70 in 10.0 mi NW 12.7 mph - N/A   Overcast
2:56 AM 32.0 °F 23.0 °F 23.0 °F 69% 29.69 in 10.0 mi NW 11.5 mph - N/A   Overcast
3:56 AM 30.9 °F 22.2 °F 21.9 °F 69% 29.68 in 10.0 mi NNW 10.4 mph 18.4 mph N/A   Overcast
4:56 AM 30.9 °F 22.2 °F 21.9 °F 69% 29.70 in 10.0 mi NW 10.4 mph - N/A   Overcast
5:56 AM 30.9 °F 21.7 °F 21.0 °F 67% 29.70 in 10.0 mi NW 11.5 mph - N/A   Overcast
6:56 AM 30.9 °F 20.7 °F 19.9 °F 64% 29.71 in 10.0 mi NW 13.8 mph - N/A   Overcast
7:56 AM 30.9 °F 20.7 °F 19.9 °F 64% 29.72 in 10.0 mi NNW 13.8 mph - N/A   Overcast
8:56 AM 33.1 °F 24.4 °F 19.9 °F 59% 29.71 in 10.0 mi NNW 11.5 mph 19.6 mph N/A   Overcast
9:56 AM 34.0 °F 25.0 °F 19.9 °F 56% 29.70 in 10.0 mi NW 12.7 mph - N/A   Overcast
10:56 AM 36.0 °F 29.6 °F 21.0 °F 55% 29.69 in 10.0 mi NNW 8.1 mph 16.1 mph N/A   Overcast
11:56 AM 37.0 °F 28.5 °F 19.0 °F 48% 29.68 in 10.0 mi NW 13.8 mph - N/A   Mostly Cloudy
12:56 PM 36.0 °F 26.3 °F 19.0 °F 50% 29.67 in 10.0 mi WNW 16.1 mph - N/A   Mostly Cloudy
1:56 PM 37.0 °F 29.3 °F 19.9 °F 50% 29.65 in 10.0 mi NW 11.5 mph 19.6 mph N/A   Overcast
2:56 PM 37.0 °F 28.9 °F 19.9 °F 50% 29.65 in 10.0 mi WNW 12.7 mph - 0.00 in   Overcast
3:56 PM 36.0 °F 26.7 °F 21.0 °F 55% 29.65 in 10.0 mi North 15.0 mph 21.9 mph N/A   Overcast
4:56 PM 34.0 °F 25.5 °F 23.0 °F 64% 29.66 in 10.0 mi NW 11.5 mph 19.6 mph N/A   Overcast
5:56 PM 33.1 °F 24.4 °F 23.0 °F 66% 29.67 in 10.0 mi NNW 11.5 mph 20.7 mph 0.00 in   Overcast
6:56 PM 33.1 °F 23.9 °F 23.0 °F 66% 29.69 in 10.0 mi NW 12.7 mph - 0.00 in   Overcast
7:46 PM 33.8 °F 23.9 °F 24.8 °F 70% 29.69 in 10.0 mi NNW 15.0 mph 21.9 mph N/A   Overcast
7:54 PM 33.8 °F 25.3 °F 24.8 °F 70% 29.69 in 10.0 mi NW 11.5 mph 21.9 mph N/A   Overcast
7:56 PM 33.1 °F 24.9 °F 24.1 °F 70% 29.70 in 10.0 mi NW 10.4 mph 20.7 mph N/A   Overcast
8:56 PM 34.0 °F 25.0 °F 24.1 °F 67% 29.72 in 10.0 mi NW 12.7 mph 18.4 mph N/A   Overcast
9:56 PM 33.1 °F 23.9 °F 23.0 °F 66% 29.72 in 10.0 mi NW 12.7 mph - N/A   Overcast
10:56 PM 33.1 °F 23.9 °F 21.9 °F 64% 29.71 in 10.0 mi NW 12.7 mph - N/A   Overcast
11:56 PM 32.0 °F 23.0 °F 19.9 °F 61% 29.71 in 10.0 mi NW 11.5 mph - N/A   Overcast